ZF1RC George Town KY current weather conditions

sailwx.info

Wind from 023 at 0 knots gusting 1

Air temperature 33.9° C
Dewpoint 25.8° C

Last reported at 2020-Sep-26 17:30 UTC.
Time now 2020-Sep-26 18:24 UTC

Location: N 19°16' W 081°23'.
View on Google Maps.

See reports from other nearby stations

  
Tides and Currents Weather Stations Pressure Air Temp Water Temp Dewpoint Dewpoint Depression Visibility Wind Speed Wind Dir Waves Ship Positions
date/time (UTC)wind fromknots sea level pressurealtimeterstation pressurevisibilityair tempwater tempwave heightnotes
2020-Sep-26 18:00 143 0 gusting 1 33.9
2020-Sep-26 17:30 023 0 gusting 1 33.9
2020-Sep-26 17:00 132 0 gusting 1 33.3
2020-Sep-26 16:30 120 33.9
2020-Sep-26 16:00 340 0 gusting 1 33.9
2020-Sep-26 15:30 098 33.3
2020-Sep-26 15:00 083 0 gusting 1 33.3
2020-Sep-26 14:30 077 32.2
2020-Sep-26 14:00 088 0 gusting 1 31.7
2020-Sep-26 13:30 044 30.6
2020-Sep-26 13:00 057 30.0
2020-Sep-26 12:30 094 0 gusting 1 29.4
2020-Sep-26 12:00 064 28.3
2020-Sep-26 11:30 256 28.3
2020-Sep-26 11:00 115 0 gusting 0 28.3
2020-Sep-26 10:30 203 0 gusting 0 28.3
2020-Sep-26 10:00 172 28.3
2020-Sep-26 09:30 062 28.3
2020-Sep-26 09:00 094 27.8
2020-Sep-26 08:30 277 27.8
2020-Sep-26 08:00 108 27.2
2020-Sep-26 07:30 251 27.8
2020-Sep-26 07:00 081 1 gusting 4 26.7
2020-Sep-26 06:30 111 26.1
2020-Sep-26 06:00 098 0 gusting 1 26.7
2020-Sep-25 16:30 160 0 gusting 6 33.3
2020-Sep-25 16:00 138 31.7
2020-Sep-25 15:30 138 31.7
2020-Sep-25 15:00 138 31.7
2020-Sep-25 14:30 138 31.7
2020-Sep-25 14:00 012 0 gusting 1 31.7
2020-Sep-25 13:30 225 29.4
2020-Sep-25 13:00 290 27.8
2020-Sep-25 12:30 104 26.7
2020-Sep-25 12:00 178 2 gusting 8 26.7
2020-Sep-25 11:30 231 7 gusting 10 27.8
2020-Sep-25 11:00 250 0 gusting 2 28.3
2020-Sep-25 10:30 171 2 gusting 4 28.9
2020-Sep-25 10:00 156 0 gusting 4 28.9
2020-Sep-25 09:30 160 3 gusting 4 28.3
2020-Sep-25 09:00 172 0 gusting 4 28.3
2020-Sep-25 08:30 179 1 gusting 2 28.3
2020-Sep-25 08:00 162 28.3
2020-Sep-25 07:30 074 28.3
2020-Sep-25 07:00 188 0 gusting 4 28.3
2020-Sep-25 06:30 178 2 gusting 5 27.8
2020-Sep-25 06:00 176 4 gusting 5 27.8
2020-Sep-25 05:30 150 27.2
2020-Sep-25 05:00 158 26.7
2020-Sep-25 04:30 178 27.2
2020-Sep-25 04:00 239 27.8
2020-Sep-25 03:30 185 26.7
2020-Sep-25 03:00 103 27.2
2020-Sep-25 02:30 063 27.2
2020-Sep-25 02:00 239 27.8
2020-Sep-25 01:30 079 28.3
2020-Sep-25 01:00 076 28.9
2020-Sep-25 00:30 043 28.9
2020-Sep-25 00:00 195 28.9
2020-Sep-24 23:30 069 29.4
2020-Sep-24 23:00 165 0 gusting 0 30.0
2020-Sep-24 22:30 203 30.6
2020-Sep-24 22:00 172 30.6
2020-Sep-24 21:30 087 31.7
2020-Sep-24 21:00 104 1 gusting 4 32.2
2020-Sep-24 20:30 194 2 gusting 5 32.2
2020-Sep-24 20:00 148 1 gusting 6 32.2
2020-Sep-24 19:30 138 4 gusting 6 32.2
2020-Sep-24 19:00 179 2 gusting 7 32.2
2020-Sep-24 18:30 149 5 gusting 6 32.2
2020-Sep-24 18:00 188 2 gusting 6 32.8